This demonstration page uses our WeatherBlox Daily Observations layout. Learn more.

Hourly Observations for February 7, 2015

Temp ( °F °C ) Dew Point ( °F °C ) Humidity (%) Winds ( mph kmh ) Pressure ( in mb ) Visibility ( mi km ) Precip ( " mm )
12:15 am 00:15 Clear 44 6.9 32 0.2 63 63 SW 10 17 29.83 1010 10 16.0934 0 0
12:35 am 00:35 Clear 44 6.4 32 0 64 64 SSW 9 15 29.83 1010 10 16.0934 0 0
12:55 am 00:55 Clear 41 5 32 0 70 70 SSW 8 13 29.83 1010 10 16.0934 0 0
1:15 am 01:15 Clear 41 5 32 -0.1 70 70 SW 8 13 29.83 1010 10 16.0934 0 0
1:35 am 01:35 Clear 40 4.5 32 -0.2 72 72 SSW 6 9 29.83 1010 10 16.0934 0 0
1:55 am 01:55 Clear 39 4.1 32 -0.2 74 74 SSW 7 11 29.8 1009 10 16.0934 0 0
2:15 am 02:15 Clear 40 4.3 32 -0.1 73 73 SW 6 9 29.8 1009 10 16.0934 0 0
2:35 am 02:35 Clear 40 4.4 32 0 73 73 SW 3 6 29.8 1009 10 16.0934 0 0
2:55 am 02:55 Clear 41 4.9 32 0 71 71 WSW 8 13 29.8 1009 10 16.0934 0 0
3:15 am 03:15 Clear 40 4.6 32 -0.1 72 72 WSW 5 7 29.77 1008 10 16.0934 0 0
3:35 am 03:35 Clear 39 4.1 31 -0.5 72 72 WSW 5 7 29.77 1008 10 16.0934 0 0
3:55 am 03:55 Clear 41 5.1 31 -0.8 66 66 WSW 7 11 29.77 1008 10 16.0934 0 0
4:15 am 04:15 Clear 43 5.9 29 -1.4 60 60 W 7 11 29.77 1008 10 16.0934 0 0
4:35 am 04:35 Clear 41 4.8 29 -1.5 64 64 WNW 6 9 29.77 1008 10 16.0934 0 0
4:55 am 04:55 Clear 37 2.9 29 -1.6 73 73 WSW 7 11 29.77 1008 10 16.0934 0 0
5:15 am 05:15 Clear 36 2.4 28 -2 73 73 W 8 13 29.77 1008 10 16.0934 0 0
5:35 am 05:35 Clear 39 4 28 -2.3 64 64 W 10 17 29.74 1007 10 16.0934 0 0
5:55 am 05:55 Clear 39 3.9 27 -3 61 61 W 7 11 29.74 1007 10 16.0934 0 0
6:15 am 06:15 Clear 40 4.3 26 -3.1 59 59 WNW 8 13 29.74 1007 10 16.0934 0 0
6:35 am 06:35 Clear 39 3.7 26 -3.2 61 61 WNW 7 11 29.74 1007 10 16.0934 0 0
6:55 am 06:55 Clear 38 3.4 26 -3.3 62 62 WNW 7 11 29.77 1008 10 16.0934 0 0
7:15 am 07:15 Clear 38 3.3 26 -3.5 61 61 WNW 7 11 29.8 1009 10 16.0934 0 0
7:35 am 07:35 Clear 38 3.3 26 -3.4 62 62 W 8 13 29.8 1009 10 16.0934 0 0
7:55 am 07:55 Sunny 45 7 26 -3.5 48 48 WNW 10 17 29.74 1007 10 16.0934 0 0
8:15 am 08:15 Sunny 50 9.8 24 -4.2 37 37 W 14 22 29.71 1006 10 16.0934 0 0
8:35 am 08:35 Sunny 51 10.5 25 -3.9 36 36 W 13 20 29.71 1006 10 16.0934 0 0
8:55 am 08:55 Sunny 52 11.3 26 -3.6 35 35 W 13 20 29.71 1006 10 16.0934 0 0
9:15 am 09:15 Sunny 55 12.9 27 -2.8 34 34 W 13 20 29.71 1006 10 16.0934 0 0
9:35 am 09:35 Sunny 59 14.8 27 -2.8 30 30 W 17 28 29.68 1005 10 16.0934 0 0
9:55 am 09:55 Sunny 62 16.5 27 -3 26 26 W 16 26 29.65 1004 10 16.0934 0 0
10:15 am 10:15 Sunny 62 16.7 28 -2.4 27 27 W 15 24 29.65 1004 10 16.0934 0 0
10:35 am 10:35 Sunny 64 17.5 29 -1.5 28 28 W 15 24 29.65 1004 10 16.0934 0 0
10:55 am 10:55 Sunny 65 18.6 30 -0.9 27 27 W 14 22 29.65 1004 10 16.0934 0 0
11:15 am 11:15 Sunny 67 19.5 29 -1.5 24 24 W 15 24 29.65 1004 10 16.0934 0 0
11:35 am 11:35 Sunny 67 19.6 29 -1.7 24 24 W 13 20 29.62 1003 10 16.0934 0 0
11:55 am 11:55 Sunny 69 20.3 29 -1.5 23 23 W 14 22 29.62 1003 10 16.0934 0 0
12:15 pm 12:15 Sunny 69 20.8 30 -1 23 23 W 14 22 29.59 1002 10 16.0934 0 0
12:35 pm 12:35 Sunny 70 21 31 -0.4 24 24 WNW 16 26 29.59 1002 10 16.0934 0 0
12:55 pm 12:55 Sunny 71 21.5 32 -0.2 24 24 WNW 21 33 29.59 1002 10 16.0934 0 0
1:15 pm 13:15 Sunny 70 21 30 -1.3 22 22 NW 25 41 29.59 1002 10 16.0934 0 0
1:35 pm 13:35 Sunny 70 21.3 31 -0.7 23 23 NW 18 30 29.59 1002 10 16.0934 0 0
1:55 pm 13:55 Sunny 71 21.5 32 -0.2 24 24 WNW 15 24 29.56 1001 10 16.0934 0 0
2:15 pm 14:15 Sunny 71 21.5 31 -0.7 23 23 NNW 16 26 29.56 1001 10 16.0934 0 0
2:35 pm 14:35 Sunny 69 20.6 31 -0.3 25 25 NW 16 26 29.56 1001 10 16.0934 0 0
2:55 pm 14:55 Sunny 69 20.5 32 0 25 25 NW 13 20 29.56 1001 10 16.0934 0 0
3:15 pm 15:15 Sunny 68 20.1 32 0 26 26 NW 13 20 29.56 1001 10 16.0934 0 0
3:35 pm 15:35 Sunny 68 20 33 0.7 28 28 NW 12 19 29.56 1001 10 16.0934 0 0
3:55 pm 15:55 Sunny 68 20 34 1.3 29 29 NW 10 17 29.56 1001 10 16.0934 0 0
4:15 pm 16:15 Sunny 68 20.1 36 2.1 30 30 NW 7 11 29.56 1001 10 16.0934 0 0
4:35 pm 16:35 Sunny 68 20.1 36 2.4 31 31 NW 6 9 29.56 1001 10 16.0934 0 0
4:55 pm 16:55 Sunny 66 19.1 37 2.5 33 33 NW 6 9 29.62 1003 10 16.0934 0 0
5:15 pm 17:15 Sunny 64 17.6 37 2.7 37 37 WNW 7 11 29.62 1003 10 16.0934 0 0
5:35 pm 17:35 Sunny 64 17.5 34 1 33 33 WNW 6 9 29.62 1003 10 16.0934 0 0
5:55 pm 17:55 Sunny 60 15.5 35 1.5 39 39 W 5 7 29.65 1004 10 16.0934 0 0
6:15 pm 18:15 Clear 58 14.5 34 1.2 41 41 W 7 11 29.65 1004 10 16.0934 0 0
6:35 pm 18:35 Clear 56 13.6 34 1.1 43 43 W 7 11 29.65 1004 10 16.0934 0 0
6:55 pm 18:55 Clear 54 12.3 34 1.2 47 47 W 6 9 29.71 1006 10 16.0934 0 0
7:15 pm 19:15 Clear 52 11 34 1.2 51 51 W 5 7 29.71 1006 10 16.0934 0 0
7:35 pm 19:35 Clear 53 11.4 32 0.2 46 46 W 7 11 29.71 1006 10 16.0934 0 0
7:55 pm 19:55 Clear 51 10.7 32 -0.1 48 48 W 6 9 29.71 1006 10 16.0934 0 0
8:15 pm 20:15 Clear 50 10.1 31 -0.4 48 48 W 7 11 29.71 1006 10 16.0934 0 0
8:35 pm 20:35 Clear 53 11.5 31 -0.6 43 43 WSW 3 6 29.71 1006 10 16.0934 0 0
8:55 pm 20:55 Clear 50 10.1 31 -0.4 48 48 WSW 3 6 29.71 1006 10 16.0934 0 0
9:15 pm 21:15 Clear 51 10.6 31 -0.6 46 46 WSW 3 6 29.71 1006 10 16.0934 0 0
9:35 pm 21:35 Clear 51 10.3 31 -0.5 47 47 W 3 6 29.71 1006 10 16.0934 0 0
9:55 pm 21:55 Clear 50 10 31 -0.4 49 49 WSW 9 15 29.77 1008 10 16.0934 0 0
10:15 pm 22:15 Clear 52 10.9 31 -0.4 46 46 WSW 8 13 29.71 1006 10 16.0934 0 0
10:35 pm 22:35 Clear 53 11.7 30 -1.1 41 41 W 12 19 29.71 1006 10 16.0934 0 0
10:55 pm 22:55 Clear 52 11.1 29 -1.7 41 41 W 15 24 29.71 1006 10 16.0934 0 0
11:15 pm 23:15 Clear 56 13.4 28 -2.5 33 33 WSW 15 24 29.71 1006 10 16.0934 0 0
11:35 pm 23:35 Clear 55 13 27 -2.6 34 34 W 17 28 29.71 1006 10 16.0934 0 0
11:55 pm 23:55 Clear 55 12.6 27 -2.7 35 35 W 21 33 29.71 1006 10 16.0934 0 0

Powered by AerisWeather